Location: DaltonSkyGazer Observatory
(42.4858°N, 73.1565°W)
Time: 16:19:40
(UTC-04:00)

Daily predictions for brighter satellites

Satellite Brightness Start Highest point End
(mag) Time Altitude Azimuth Time Altitude Azimuth Time Altitude Azimuth
Cosmos 1782 Rocket 3.7 20:17:48 10° SSW 20:22:08 78° W 20:26:30 10° N
Resurs 01 Rocket 1.6 20:17:45 10° SSE 20:22:12 80° ENE 20:26:41 10° N
Cosmos 44 3.2 20:18:59 10° NNW 20:23:22 62° NE 20:27:54 10° SE
ERBS 2.3 20:21:24 10° SW 20:24:51 64° SE 20:28:18 10° NE
Cosmos 2322 Rocket 3.0 20:20:11 10° SSE 20:25:03 30° ESE 20:29:57 10° NE
Cosmos 2263 Rocket 3.4 20:20:30 10° N 20:25:19 27° NE 20:30:05 10° ESE
Cosmos 1939 Rocket 3.5 20:22:35 10° SE 20:26:15 36° ENE 20:29:53 10° N
Cosmos 921 Rocket 2.9 20:24:09 10° SSW 20:28:20 88° WNW 20:32:32 10° NNE
Okean 1 3.3 20:25:59 10° N 20:29:58 83° E 20:33:57 10° S
ERS-1 Rocket 4.4 20:26:35 10° ESE 20:30:14 21° ENE 20:33:53 10° NNE
ATLAS 3B R/B 4.2 20:25:11 10° NNW 20:30:29 23° NNE 20:35:38 10° E
Envisat 3.0 20:27:14 10° SSE 20:32:16 67° ENE 20:37:19 10° N
Meteor 1-20 Rocket 4.5 20:28:59 10° SSW 20:34:32 74° W 20:40:03 10° N
Cosmos 1441 Rocket 4.1 20:31:04 10° NNW 20:34:41 49° W 20:38:17 10° S
SL-16 R/B 2.7 20:29:49 10° S 20:34:55 36° ESE 20:40:03 10° NE
Cosmos 1536 4.0 20:31:43 10° SE 20:34:59 23° E 20:38:15 10° NE
Lacrosse 5 rocket 1.0 20:32:57 10° NW 20:36:38 86° NE 20:40:08 12° SE
Tiangong 1 0.7 20:34:18 10° W 20:37:05 81° N 20:39:34 12° E
Helios 1B rocket 3.5 20:34:14 10° NE 20:37:36 24° E 20:40:57 10° SSE
Cosmos 2151 Rocket 3.8 20:33:30 10° SSE 20:37:44 50° E 20:41:59 10° NNE
Cosmos 1975 Rocket 3.8 20:33:24 10° NNW 20:37:49 58° W 20:42:10 10° S
CZ-4C R/B 4.2 20:35:16 10° NW 20:41:57 39° WSW 20:49:12 10° S
Cosmos 2026 Rocket 4.4 20:41:01 10° SSW 20:47:20 72° W 20:53:43 10° N
CZ-4B DEB 4.0 20:46:34 17° ESE 20:47:43 21° ENE 20:49:57 10° NNE
EXPRESS MD2 2.7 20:46:37 10° SW 20:49:10 75° SE 20:53:33 10° ENE
Cosmos 1655 Rocket 4.1 20:45:57 10° S 20:52:13 86° W 20:58:36 10° N
GPS 2-05 Rocket1 4.1 20:49:44 10° SW 20:52:31 24° S 20:53:52 18° SE
Cosmos 1633 3.9 20:54:55 10° SSW 20:58:23 43° WNW 21:01:52 10° N
Cosmos 2360 Rocket 3.3 20:56:27 13° SE 20:59:54 23° E 21:04:12 10° NE
YAOGAN 6 2.5 20:57:35 15° SSE 21:00:25 64° ENE 21:03:55 10° N
Cosmos 1980 Rocket 3.2 20:55:20 10° SW 21:00:46 50° WNW 21:06:13 10° NNE
Cosmos 839 Rocket 4.1 20:54:52 10° SSW 21:01:09 85° NW 21:07:28 10° NNE
Meteor 1-13 Rocket 4.3 20:55:57 10° N 21:01:57 87° E 21:07:54 10° S
Abrixas rocket 3.9 20:59:02 10° WNW 21:02:00 31° N 21:05:00 10° NE
Cosmos 1536 Rocket 3.4 20:57:44 10° N 21:02:05 79° E 21:06:16 11° S
ATLAS 2AS CENTAUR R/B 3.3 20:56:09 10° S 21:03:10 42° ESE 21:10:37 10° NE
SJ-11-01 4.3 20:58:43 10° SSE 21:03:23 89° WSW 21:08:05 10° NNW
BREEZE M DEB (TANK) 3.9 20:55:22 10° SSW 21:03:38 29° SSE 21:05:34 21° ESE
Cosmos 1452 Rocket 3.9 20:59:23 10° SSW 21:04:38 68° WNW 21:09:56 10° NNE
USA 186 3.8 21:03:08 10° SSW 21:06:07 30° W 21:09:09 10° NNW
Cosmos 1850 Rocket 4.1 21:01:35 10° NNW 21:06:55 66° ENE 21:10:45 19° SSE
Cosmos 1420 Rocket 4.0 21:03:42 10° SSW 21:08:52 88° W 21:14:06 10° NNE
Meteor 2-4 Rocket 3.7 21:03:42 10° N 21:09:14 72° E 21:14:12 14° SSE
NOSS 2-3 (E) 3.9 21:09:20 10° SSW 21:13:53 57° ESE 21:19:08 10° NE
Helios 1A 2.9 21:11:48 16° SSE 21:15:08 87° ENE 21:19:25 10° NNW
Atlas Centaur 2 3.7 21:08:24 10° WSW 21:15:11 31° S 21:18:37 21° SE
Cosmos 44 Rocket 4.4 21:12:40 10° NW 21:17:05 39° WSW 21:21:13 12° S
Okean 2 4.3 21:13:34 10° NNE 21:17:11 29° ENE 21:18:07 26° E
NOAA 11 4.3 21:13:58 19° SSE 21:17:48 61° ENE 21:23:14 10° N
Spot 1 4.5 21:21:42 17° SSE 21:25:42 89° WSW 21:30:50 10° NNW
Cosmos 883 Rocket 4.4 21:20:34 10° N 21:26:42 74° E 21:31:10 19° SSE
BREEZE-M DEB (TANK) 2.3 21:29:24 10° WSW 21:32:08 43° NNW 21:32:41 33° NNE
SeaSat 1 3.9 21:31:16 10° NNE 21:35:52 40° NW 21:40:27 10° SW
Meteor 1-11 Rocket 4.5 21:34:41 10° SSW 21:40:26 56° WNW 21:46:06 10° N
NOSS 2-3 (C) 4.0 21:42:48 10° SW 21:47:29 78° NW 21:53:02 10° NE
SPOT 5 3.0 21:46:37 41° SE 21:47:59 57° ENE 21:52:38 10° N
MetOp-A 4.1 21:46:00 31° SSE 21:48:41 90° ENE 21:54:04 10° NNW
Cosmos 1975 4.2 21:50:50 26° ENE 21:50:50 26° ENE 21:53:12 10° NNE
SAR-Lupe-4 4.1 21:52:24 42° SSW 21:53:17 56° W 21:56:50 10° NNW
Lacrosse 5 1.7 21:50:10 10° SW 21:55:12 67° SE 22:00:15 10° NE
Meteor 1-29 4.2 21:55:31 10° N 21:58:46 40° WNW 22:00:42 20° SW
USA 238 DEB 4.0 21:52:33 10° NNW 21:59:32 57° NE 22:02:25 35° ESE
USA 238 4.1 21:52:39 10° NNW 21:59:38 57° NE 22:02:31 35° ESE
Cosmos 2315 Rocket 4.0 21:54:07 10° N 22:00:23 83° W 22:03:43 30° S
Okean 1 Rocket 3.8 21:58:31 16° SSW 22:01:51 51° WNW 22:06:07 10° N
H-2A R/B 2.0 22:00:55 50° SE 22:02:01 65° ENE 22:06:59 10° N
Okean 1-7 Rocket 3.7 21:59:03 10° NNW 22:03:32 74° W 22:04:41 49° SSW
YAOGAN 11 3.9 22:05:01 68° ESE 22:05:25 74° ENE 22:09:45 10° N
Cosmos 2278 Rocket 4.0 22:02:31 10° N 22:06:10 17° NE 22:07:46 15° ENE
Cosmos 1607 4.1 21:59:56 10° NW 22:06:22 72° WSW 22:08:50 40° SSE
ARGOS 3.1 22:04:28 40° S 22:06:28 78° WSW 22:11:52 10° NNW
Cosmos 2237 4.3 22:06:22 50° SE 22:06:55 52° ESE 22:12:26 10° NE
ERS-1 Rocket 3.6 22:06:16 28° SSW 22:08:38 51° W 22:13:32 10° NNW
Cosmos 2322 Rocket 3.5 22:03:33 10° SW 22:08:55 41° WNW 22:14:18 10° NNE
Cosmos 2263 Rocket 2.9 22:04:01 10° NW 22:09:29 49° WSW 22:11:56 30° SSW
Nadezhda 2 Rocket 4.5 22:05:18 21° SSW 22:09:37 79° W 22:15:52 10° N
Tiangong 1 3.5 22:09:45 10° W 22:10:33 17° W 22:10:33 17° W
Helios 1B rocket 4.4 22:09:21 10° N 22:12:52 28° WNW 22:16:22 10° SW
Lacrosse 5 rocket 3.8 22:14:36 10° WSW 22:15:19 10° WSW 22:15:51 10° SW
Cosmos 1844 Rocket 3.2 22:12:35 10° NNW 22:18:02 45° ENE 22:18:48 42° E
Cosmos 1025 Rocket 3.8 22:14:21 10° NNW 22:18:27 46° W 22:19:22 39° SW
CARTOSAT-1 4.5 22:19:24 37° NE 22:19:24 37° NE 22:22:49 10° N
SL-16 R/B 3.8 22:13:52 10° WSW 22:19:00 35° WNW 22:24:10 10° N
ATLAS 3B R/B 2.5 22:15:26 10° NW 22:22:13 84° NE 22:23:52 54° SE
Cosmos 1515 4.3 22:19:25 10° NNW 22:22:57 52° W 22:22:57 52° W
Cosmos 405 4.5 22:26:02 32° N 22:26:02 32° N 22:28:06 10° N
Cosmos 2322 3.6 22:24:05 32° SSW 22:26:52 85° WNW 22:32:35 10° NNE
BREEZE-M DEB 3.5 22:22:19 10° WNW 22:29:07 52° NNE 22:29:11 52° NNE
Landsat 7 3.7 22:29:53 76° ENE 22:29:53 76° ENE 22:34:33 10° N
Cosmos 2219 Rocket 3.5 22:32:43 25° ENE 22:32:43 25° ENE 22:35:32 10° NE
Cosmos 1745 Rocket 3.9 22:30:57 61° ESE 22:31:29 63° E 22:37:33 10° NNE
Cosmos 1486 Rocket 3.9 22:26:25 10° NNW 22:31:41 75° ENE 22:31:49 75° E
Nimbus 7 Rocket 4.2 22:25:54 10° NNE 22:31:48 84° ESE 22:33:06 57° S
H-2A R/B 3.6 22:33:11 26° NE 22:33:11 26° NE 22:35:57 10° N
Cosmos 1302 Rocket 3.9 22:32:54 77° E 22:32:54 77° E 22:38:08 10° NNE
COSMOS 2428 2.8 22:35:04 59° E 22:35:04 59° E 22:40:11 10° NNE
Cosmos 1500 4.3 22:40:18 42° WNW 22:40:18 42° WNW 22:43:40 10° N
Cosmos 2360 Rocket 2.9 22:38:00 10° SW 22:43:30 52° WNW 22:49:00 10° NNE
DMSP B5D2-2 3.9 22:39:02 10° NNE 22:44:19 88° WNW 22:44:26 86° SW
Terra 2.0 22:45:43 65° NNE 22:45:43 65° NNE 22:49:52 10° N
Cosmos 1844 3.9 22:41:04 10° NNW 22:46:40 58° ENE 22:46:42 58° ENE
Cosmos 2333 Rocket 3.6 22:50:50 26° ENE 22:50:50 26° ENE 22:53:35 10° NE
ATLAS 2AS CENTAUR R/B 3.7 22:46:30 10° WSW 22:54:05 53° NW 23:02:02 10° NNE
Cosmos 2333 4.2 22:58:32 75° NNE 22:58:32 75° NNE 23:03:40 10° NNE
SL-8 R/B 4.3 22:54:16 10° WNW 22:58:02 54° NW 22:58:02 54° NW
Cosmos 1386 Rocket 4.3 23:02:01 85° SE 23:02:08 86° E 23:08:26 10° N
Atlas Centaur 2 4.4 22:58:38 10° WSW 23:01:14 17° SW 23:01:14 17° SW
NOSS 3-4 (A) 4.4 23:06:37 34° ENE 23:06:37 34° ENE 23:10:25 10° NE
NOSS 3-4 (C) 4.5 23:06:46 34° ENE 23:06:46 34° ENE 23:10:31 10° NE
Cosmos 1818 4.3 23:07:28 44° NE 23:07:28 44° NE 23:11:09 10° NE
GP-B 4.2 23:01:24 10° N 23:04:22 42° N 23:04:22 42° N
Cosmos 1354 Rocket 4.3 23:01:26 10° NNW 23:06:02 65° N 23:06:02 65° N
Cosmos 1241 Rocket 4.5 23:06:15 66° SW 23:07:15 84° WNW 23:13:47 10° NNE
SL-19 R/B 4.5 23:06:00 10° NNE 23:12:01 77° ENE 23:12:01 77° ENE
Cosmos 2237 Rocket 3.7 23:15:20 25° NE 23:15:20 25° NE 23:17:48 10° NE
CENTAUR R/B 4.1 23:07:19 10° NNW 23:14:24 37° NE 23:17:29 28° E
Cosmos 724 4.4 23:16:58 10° NNW 23:22:08 70° NNW 23:22:08 70° NNW
Nadezhda 1 Rocket 4.3 23:16:57 10° NNW 23:23:06 58° W 23:23:30 57° WSW
Meteor 1-21 4.5 23:17:50 10° NNW 23:22:49 65° NW 23:22:49 65° NW
Cosmos 2181 Rocket 4.1 23:26:43 10° N 23:32:35 70° NE 23:32:35 70° NE
BREEZE M DEB (TANK) 4.5 23:18:20 10° WSW 23:35:53 77° NNW 23:37:49 43° NE
Lacrosse 5 3.7 23:34:04 10° W 23:38:32 30° NNW 23:43:00 10° NNE
Cosmos 1709 Rocket 4.1 23:40:17 71° NNW 23:40:17 71° NNW 23:45:52 10° N
H-2A R/B 4.2 23:41:34 15° W 23:41:51 15° W 23:44:44 10° NW
ATLAS CENTAUR R/B 4.2 23:41:52 10° N 23:42:14 11° NNE 23:42:14 11° NNE
NOSS 3-2 (A) 4.1 23:43:00 10° NW 23:50:24 63° WSW 23:50:24 63° WSW
Cosmos 2278 Rocket 2.8 23:45:19 10° NNW 23:49:36 53° NNW 23:49:36 53° NNW
